Weather Roundup
Issued by NWS

Home | Current Version | Previous Version | Text Only | Print | Product List | Glossary On
Versions: 1 2 3 4 5 6 7 8 9 10 11 12 13 14 15 16 17 18 19 20 21 22 23 24 25 26 27 28 29 30 31 32 33 34 35 36 37 38 39 40 41 42 43 44 45 46 47 48 49 50
000
NZUS93 KARX 271310
HRRWXR

CURRENT HOURLY OBSERVATIONS ACROSS
MUCH OF THE UPPER MISSISSIPPI VALLEY
NATIONAL WEATHER SERVICE LA CROSSE WI
800 AM CDT SAT AUG 27 2016


...SOUTHEAST MINNESOTA...


CITY           SKY/WX    TMP DP  RH WIND       PRES   REMARKS
ROCHESTER      CLOUDY    61  59  93 E10       30.06S
ROCHESTER/MAYO CLOUDY    62  60  93 E6        30.06F
WINONA         CLOUDY    63  59  88 SE7       30.07F
AUSTIN         CLOUDY    61  57  88 E6        30.05R
ALBERT LEA     LGT RAIN  63  59  88 SE5       30.05S
DODGE CENTER   LGT RAIN  61  59  94 E7        30.06S
PRESTON        CLOUDY    60  56  89 E8        30.07S
OWATONNA       RAIN      61  57  88 NE3       30.07R
FARIBAULT      RAIN      61  61 100 CALM      30.07S
$$

...ELSEWHERE IN MINNESOTA...


CITY           SKY/WX    TMP DP  RH WIND       PRES   REMARKS
MINNEAPOLIS    LGT RAIN  64  59  83 SE7       30.07S
INTNL FALLS    MOSUNNY   59  55  87 VRB5      30.05S
DULUTH         CLOUDY    59  57  93 E5        30.11R
RED WING       CLOUDY    64  59  82 E3        30.08R
REDWOOD FALLS  RAIN      60  58  92 S5        30.06R FOG
MANKATO        CLOUDY    63  57  82 E6        30.06R
WORTHINGTON    CLOUDY    60  59  96 E6        30.05R FOG
FAIRMONT       LGT RAIN  60  59  96 E6        30.04S
$$

...SOUTHWEST WISCONSIN...


CITY           SKY/WX    TMP DP  RH WIND       PRES   REMARKS
LA CROSSE      CLOUDY    64  61  90 E6        30.07F
PRAIRIE DU CHI CLOUDY    63  61  96 E5        30.05R
BOSCOBEL       CLOUDY    64  62  93 NE6       30.07R
LONE ROCK      CLOUDY    64  61  90 E9        30.08F
PLATTEVILLE    CLOUDY    63  63 100 E12       30.06S
FORT MC COY    DRIZZLE   60  59  97 E5        30.10S
CAMP DOUGLAS   LGT RAIN  61  59  94 E7        30.11R
MAUSTON-NEW LI RAIN      60  59  97 CALM      30.10S
VIROQUA        CLOUDY    61  61 100 E10       30.08S
WIS DELLS      RAIN      61  59  94 E10       30.10S
$$

...ELSEWHERE IN WISCONSIN...


CITY           SKY/WX    TMP DP  RH WIND       PRES   REMARKS
MILWAUKEE      CLOUDY    64  61  90 NE10      30.11S
MADISON        CLOUDY    62  60  93 E10       30.09S
GREEN BAY      RAIN      63  62  97 CALM      30.14R
EAU CLAIRE     MOSUNNY   63  58  83 SE8       30.09S
BLACK RVR FLS  CLOUDY    61  61 100 E6        30.09F
MEDFORD        CLOUDY    58  58 100 SE8       30.12F
WAUSAU         PTSUNNY   59  58  96 E8        30.13R
WIS RAPIDS     CLOUDY    61  59  93 E6        30.13R
MARSHFIELD     CLOUDY    60  57  89 E5        30.12R
RICE LAKE      CLOUDY    60  56  88 CALM      30.13R
$$

...NORTHEAST IOWA...


CITY           SKY/WX    TMP DP  RH WIND       PRES   REMARKS
WATERLOO       CLOUDY    63  62  97 E7        30.02S FOG
DUBUQUE        CLOUDY    64  64 100 E7        30.05S FOG
DECORAH        CLOUDY    61  61 100 E6G14     30.05F
MASON CITY     CLOUDY    61  60  97 SE5       30.06R
CHARLES CITY   CLOUDY    63  63 100 E8        30.05R
OELWEIN        LGT RAIN  63  63 100 E8        30.05R
$$

...ELSEWHERE IN IOWA...


CITY           SKY/WX    TMP DP  RH WIND       PRES   REMARKS
DES MOINES     FOG       65  63  93 CALM      30.03R VSB 1
IOWA CITY      CLOUDY    70  69  97 S7        30.03S
FORT DODGE     CLOUDY    61  57  88 CALM      30.05R
MARSHALLTOWN   CLOUDY    64  64 100 NE3       30.02S FOG
CEDAR RAPIDS   CLOUDY    67  67 100 E5        30.02R FOG
$$

...NORTHERN ILLINOIS...


CITY           SKY/WX    TMP DP  RH WIND       PRES   REMARKS
CHICAGO-OHARE  LGT RAIN  70  69  97 S6        30.07F
CHICAGO-MIDWAY RAIN      71  69  93 E9        30.07F FOG
MOLINE         MOSUNNY   72  69  90 S3        30.03S
ROCKFORD       CLOUDY    67  65  93 CALM      30.09R
PEORIA         CLOUDY    71  71 100 S5        30.04F
$$

NOTE: "FAIR" INDICATES FEW OR NO CLOUDS BELOW 12,000 FEET WITH NO
SIGNIFICANT WEATHER AND/OR OBSTRUCTIONS TO VISIBILITY. WIND
SPEEDS ARE IN MILES-PER-HOUR.




USA.gov is the U.S. government's official web portal to all federal, state and local government web resources and services.